User: anonymous   Login
Location: Unspecified
(0.0000°N, 0.0000°E)
Time: 21:23:28
(UTC+00:00)
Language:

STARLINK-33870 - Orbit

View from above orbital plane
View from above orbital plane
View from above satellite
View from above satellite

Ground track
Ground track

The orbit is defined by the following mean orbital elements,

1 63794U          26145.50642116 +.00000000 +00000-0 +59478-3 0 00001
2 63794  43.0011 338.4184 0000782 282.2559  77.8205 15.27589101    09
Epoch (UTC): 25 May 2026 12:09:14
Eccentricity: 0.0000782
inclination: 43.0011°
perigee height: 482 km
apogee height: 484 km
right ascension of ascending node: 338.4184°
argument of perigee: 282.2559°
revolutions per day: 15.27589101
mean anomaly at epoch: 77.8205°

The dashed part of the orbit path shows where the satellite is in the earth's shadow,  

DLR